COSMOS 2407

导读 | 豆包AI

COSMOS 2407是独联体(CIS)继承自俄罗斯航天体系发射的一颗军事卫星,属于俄罗斯/苏联"宇宙"(COSMOS)系列卫星,该系列自1962年起广泛承载军事侦察、技术试验等保密任务。2004年7月22日发射入轨,延续了宇宙系列保密任务属性,大概率承担军事侦察或空间技术验证任务,服役期间为独联体空间军事应用提供了数据支撑。

基本信息
目录编号:
28380
目录名称:
COSMOS 2407
国际标识:
2004-028A
轨道中心:
EARTH
卫星名称:
COSMOS 2407
卫星全名:
--
卫星状态:
在轨 (已飞行7926 天)
发射日期:
2004-07-22 UTC
国别 :
俄罗斯(独联体) (CIS)
星等 :
--
轨道信息
数据来源 国际轨道数据 AOE轨道数据
星历时间 2026-04-03T23:13:53+0800
9小时前
查看轨道信息
2026-04-02T08:00:00+0800
2天前
查看轨道信息
半长轴 7355.077km 7355.077km
偏心率 0.0040701 0.0040675
轨道倾角 82.959° 82.958°
近地点辐角 100.645° 104.957°
升交点赤经 130.056° 131.267°
平近点角 16.751° 197.749°
近地点 947.004km 947.023km
远地点 1006.876km 1006.857km
周期 104.626分钟 104.626分钟
每日圈数 13.76328 13.76328
详细信息
使用方式:
暂无
2D轨道图
3D轨道图
轨道高度分析图
轨道倾角分析图
轨道综合分析图
查看轨道综合分析图